Wind_Speed
36 34 33 34 35 34 34 34 33 31 30 31 30 29 33 33 32 31 30 27 25 28 31 32 31 28 27 27 25 23 20 19 18 17 16 16 16 16 15 13 11 10 9 9 10 11 10 8 8 7 6 7 8 6 5 4 6 8 9 6 4 6 5 4 3 3 4 4 5 5 4 3 4 4 4 3 5 8 8 6 5 4 4 4 3
35 34 34 34 35 35 34 35 34 34 34 34 33 32 33 34 34 33 32 30 28 28 29 31 31 29 28 27 25 23 21 19 19 17 16 16 17 17 16 14 12 11 9 10 11 11 10 9 8 8 7 8 8 6 5 5 6 8 8 6 7 7 4 4 4 4 3 2 4 5 6 6 4 3 3 1 6 12 12 8 5 4 4 3 2
35 36 35 33 35 36 35 36 37 37 37 36 35 34 35 36 36 35 34 33 31 29 29 29 30 28 27 26 25 24 22 20 19 17 17 19 20 18 17 15 13 11 10 12 12 10 10 9 8 9 9 8 7 6 5 4 3 4 5 6 9 8 6 6 5 3 3 2 4 6 7 7 4 4 7 8 12 15 13 8 5 4 4 1 2
37 38 38 35 35 37 37 37 38 38 38 38 37 36 37 38 38 38 37 35 33 31 29 27 27 27 26 24 23 22 21 19 17 17 17 20 20 19 17 16 13 12 12 12 12 10 10 9 9 10 9 6 7 7 5 3 3 5 5 7 11 9 7 7 5 3 2 3 5 7 7 6 6 7 11 14 13 10 7 4 6 7 5 1 3
39 40 41 39 37 39 39 39 39 40 41 40 40 40 39 39 39 39 39 37 35 33 30 27 26 26 25 23 21 20 18 17 17 17 18 20 20 18 16 14 13 13 11 11 11 10 9 9 10 10 8 6 7 7 5 4 4 6 5 6 11 10 7 9 6 3 2 2 4 8 8 6 5 6 9 11 8 4 2 3 7 7 5 3 3
41 41 42 42 40 40 40 41 41 42 43 42 42 41 40 39 39 39 39 39 37 35 32 29 27 27 27 25 24 24 23 21 20 19 19 19 18 17 15 13 12 12 11 11 12 11 10 10 11 10 7 6 6 7 6 4 4 6 6 6 11 11 9 10 9 4 3 3 4 7 8 7 6 6 7 8 7 5 2 1 4 4 3 3 3
41 41 42 43 42 42 42 43 44 44 44 44 42 41 40 40 39 39 39 40 39 38 35 31 29 29 29 29 27 27 27 26 23 19 18 19 18 17 16 14 13 12 11 12 13 12 11 12 12 10 7 6 5 5 5 4 7 8 6 5 11 13 11 12 11 7 6 7 7 7 8 7 7 6 7 7 6 4 2 0 1 2 1 3 3
41 41 42 44 44 44 45 45 46 45 45 44 44 43 42 41 40 39 39 40 40 39 37 34 32 31 31 30 29 28 27 25 22 20 18 18 19 19 17 15 14 13 13 14 14 13 13 14 13 10 8 7 5 5 5 7 11 11 7 5 10 15 14 12 11 9 9 9 8 8 7 7 7 7 8 8 7 6 5 3 1 4 2 3 6
42 42 43 44 45 45 46 46 46 45 44 45 45 44 44 42 41 40 40 40 40 39 38 36 33 32 31 31 31 29 27 24 21 21 20 19 21 20 18 16 15 15 15 16 15 14 14 15 14 11 9 9 7 5 7 10 12 11 9 6 8 14 16 14 12 10 9 9 8 7 6 7 8 6 6 7 7 6 6 5 2 4 5 5 7
43 44 43 44 45 45 46 46 45 45 45 45 44 44 44 43 42 41 40 40 40 40 39 37 35 33 32 32 32 30 28 26 23 22 23 23 23 22 19 17 16 16 16 16 16 14 15 15 13 11 11 10 7 6 9 11 10 9 9 7 7 12 15 15 14 11 10 8 7 7 7 7 8 7 6 7 6 6 7 5 1 3 8 8 8
43 43 44 44 44 44 45 46 46 46 45 45 44 44 43 43 43 42 41 41 40 40 40 38 36 35 34 33 32 31 29 28 25 25 26 26 25 24 21 18 18 17 16 17 17 15 15 14 12 12 12 10 8 9 11 10 9 8 9 9 10 11 14 16 16 13 11 9 7 7 6 6 7 7 6 7 6 5 7 6 2 4 8 8 7
43 43 44 44 43 43 45 46 47 47 46 46 45 44 44 44 43 42 41 41 41 41 41 39 38 36 35 34 32 31 29 29 28 27 27 27 26 24 22 20 20 19 18 18 18 17 15 13 12 13 14 11 9 11 11 9 9 10 9 9 10 12 14 15 15 13 12 10 8 7 7 5 4 4 5 6 5 5 7 7 6 5 6 5 6
43 43 44 45 44 44 46 47 47 48 48 48 46 45 45 45 44 44 43 42 42 42 41 40 39 37 36 35 33 31 30 30 30 28 27 26 25 26 25 24 23 22 22 21 19 18 15 14 15 16 15 12 10 11 10 9 12 13 10 9 11 12 12 13 14 13 12 10 10 10 9 6 5 5 7 7 6 7 9 8 7 7 8 6 6
42 42 43 46 47 47 48 48 49 49 49 49 47 46 46 45 45 45 44 43 42 42 42 41 40 38 36 34 33 32 31 30 30 30 28 26 26 27 27 26 24 24 23 22 20 18 16 15 17 17 16 13 11 12 11 11 13 13 11 9 11 13 12 13 13 12 12 12 14 13 11 9 8 8 9 9 8 8 9 9 8 8 9 8 8
41 43 44 46 49 49 48 49 50 50 50 50 49 47 47 46 46 46 45 44 44 43 43 42 41 40 37 35 33 33 32 31 31 31 30 28 27 27 27 26 25 23 22 21 20 20 18 17 18 18 18 16 13 13 14 14 14 13 11 10 12 14 14 14 14 14 14 14 15 16 15 13 11 10 10 10 11 10 9 11 10 9 10 11 12
40 43 45 46 49 49 49 50 50 51 50 50 50 49 49 48 47 47 45 45 44 44 44 43 42 40 39 36 34 33 33 32 32 32 31 30 28 28 27 26 24 23 21 21 21 21 20 19 19 18 18 17 14 14 16 17 16 15 13 13 13 15 15 15 15 16 16 15 16 18 18 18 16 13 12 12 13 13 12 13 13 11 11 11 12
41 43 45 46 48 49 50 50 50 50 50 50 51 51 50 49 47 47 46 45 45 45 44 43 42 42 40 38 35 34 34 33 33 33 32 31 30 29 28 26 25 24 22 22 22 23 22 21 20 19 18 18 15 15 17 18 17 16 16 15 14 15 16 15 15 16 16 16 16 17 18 21 20 19 17 14 15 15 13 13 14 14 13 12 12
43 43 44 44 47 49 50 50 50 50 50 50 50 50 50 49 48 47 46 46 46 46 45 44 43 43 42 40 37 36 35 34 34 33 32 32 31 30 29 28 26 25 23 23 23 24 23 23 22 20 20 19 16 16 19 18 18 18 18 17 16 17 17 16 15 16 16 17 16 15 17 20 21 21 20 17 17 17 15 14 13 14 14 12 12
43 44 44 44 46 49 49 50 49 49 49 49 49 50 49 48 48 47 47 47 46 46 46 45 44 44 43 42 39 37 37 35 34 34 33 33 33 32 31 30 28 26 25 25 26 26 26 25 24 23 22 22 19 19 19 18 18 20 20 19 19 20 19 16 16 16 17 17 18 17 17 18 19 21 21 20 19 19 17 14 13 13 12 12 11
44 46 47 47 48 49 49 50 49 48 48 48 48 49 49 49 48 47 46 46 46 46 46 46 45 44 44 43 41 39 38 37 36 35 35 34 33 33 32 31 30 29 28 27 28 28 28 27 27 26 25 24 23 22 21 19 18 19 21 21 21 22 21 19 17 17 18 18 18 18 17 17 18 19 20 19 18 16 14 12 11 10 10 10 10
47 47 48 49 49 49 49 49 48 48 47 47 48 49 49 49 48 47 46 46 46 47 47 46 46 45 45 44 43 41 40 38 37 36 36 35 34 34 33 32 31 31 30 30 30 30 30 29 28 28 27 26 25 24 22 21 20 20 21 21 21 22 22 21 19 19 19 19 19 18 18 17 18 18 18 17 15 14 14 12 10 10 9 9 9
49 50 50 48 47 47 47 47 47 47 47 47 48 49 50 50 49 48 47 47 47 48 48 47 46 45 45 45 44 43 41 40 39 38 37 36 35 34 34 33 33 33 33 32 32 32 32 31 30 30 29 27 26 25 24 23 23 22 22 22 22 23 24 23 22 21 21 20 19 19 19 20 19 18 17 17 16 16 16 13 11 11 10 10 10
52 50 49 46 46 46 44 45 46 47 48 48 49 50 50 50 49 49 48 48 48 48 48 47 47 46 45 45 45 44 43 42 41 40 39 37 36 35 35 35 34 34 35 34 34 33 33 33 32 32 31 30 29 27 26 25 25 25 24 24 23 23 25 24 22 22 21 21 20 20 20 21 21 19 17 17 17 16 15 14 12 12 12 11 12
47 43 42 43 43 43 42 43 45 47 48 48 49 50 51 51 50 49 49 48 47 47 47 47 48 47 46 45 45 45 44 43 42 41 40 39 37 36 36 36 36 36 36 36 35 35 34 34 34 34 33 33 32 31 29 27 27 26 26 26 24 24 25 25 24 22 22 22 22 21 21 21 20 19 18 17 17 16 15 14 13 12 13 12 12
42 39 41 41 41 42 45 46 48 49 48 48 49 50 50 51 51 49 48 48 47 47 47 48 48 47 47 47 46 46 45 44 43 42 41 40 39 37 37 37 37 38 37 37 37 36 36 36 36 36 36 35 35 34 32 30 29 28 28 28 26 24 25 26 25 24 23 23 22 21 21 20 19 19 18 18 17 16 14 14 14 13 12 12 11
41 40 41 41 42 44 47 48 49 50 49 48 48 48 48 49 49 48 47 47 47 47 47 48 48 48 48 48 47 47 46 45 44 43 42 41 40 39 39 38 38 39 39 39 38 38 38 38 38 38 37 37 37 36 35 33 30 29 29 30 28 26 25 27 27 26 24 24 23 22 21 20 20 20 19 18 17 15 14 15 15 14 12 12 12
42 42 41 43 45 47 48 48 49 49 49 48 47 47 47 47 47 47 46 46 47 47 47 48 48 48 49 49 48 48 47 45 44 43 42 42 41 41 40 40 39 39 40 40 39 40 40 40 39 39 39 38 38 38 37 35 31 30 30 31 30 28 27 28 29 27 26 25 23 22 22 22 21 21 19 18 16 15 15 16 16 15 14 14 14
43 45 45 46 47 47 47 48 47 47 47 46 46 46 46 46 46 46 45 46 46 47 47 48 48 49 49 49 48 47 46 45 44 43 42 42 42 42 41 40 40 39 40 40 40 39 39 39 40 39 39 39 39 39 39 37 33 32 32 32 30 29 29 30 30 29 27 26 24 23 23 22 22 20 19 18 17 16 16 17 18 18 17 16 16
43 44 44 44 43 43 44 46 47 46 45 45 44 45 45 45 45 45 45 46 46 46 47 48 49 49 50 49 48 47 46 46 45 44 43 42 42 43 42 41 41 40 39 39 39 39 39 39 39 39 39 39 40 40 40 38 35 34 34 33 31 30 30 30 31 30 29 26 25 24 23 22 21 20 18 17 17 18 18 18 19 20 19 18 17
40 42 42 42 42 40 38 40 42 44 44 44 44 45 46 46 46 46 46 46 46 46 47 49 50 50 50 48 48 48 47 46 45 44 43 42 42 42 42 42 41 40 38 38 38 38 39 39 39 39 39 39 40 41 41 38 36 35 35 34 32 31 31 31 31 32 31 27 25 25 24 22 22 21 19 18 18 19 17 16 18 19 20 19 19
35 38 38 39 40 38 35 35 36 38 40 43 45 46 46 46 46 46 47 47 47 47 48 49 50 50 49 48 48 48 48 47 46 44 43 42 42 42 41 40 40 39 38 37 37 37 38 38 38 37 37 38 39 40 39 37 35 36 37 37 34 32 32 32 33 33 32 28 26 26 25 23 23 23 21 21 21 20 18 16 18 20 20 20 20
33 38 40 40 41 40 36 35 34 34 36 39 43 46 46 47 47 48 48 47 47 48 49 50 50 50 49 49 47 48 48 48 46 45 43 42 42 41 41 39 39 39 37 37 37 37 37 36 35 35 35 35 37 39 38 35 32 34 37 39 36 33 32 34 34 33 32 29 26 26 24 23 24 24 23 24 22 20 19 18 20 22 22 22 23
39 42 45 46 46 44 40 36 36 36 36 38 42 46 48 48 49 49 48 48 48 49 49 50 50 50 50 49 47 47 48 48 47 45 44 43 42 41 41 40 39 39 38 37 37 36 36 35 35 34 33 33 35 36 35 31 29 29 33 37 37 35 33 34 34 33 32 29 27 25 23 23 23 24 24 24 23 21 20 21 23 25 24 23 24
43 45 46 47 46 44 40 37 36 36 36 38 42 45 46 48 49 49 49 49 49 50 50 51 51 51 51 50 48 47 47 46 46 45 44 43 43 41 41 41 40 38 38 37 36 35 34 34 34 34 32 32 33 33 31 28 25 25 30 34 35 35 34 34 34 32 31 29 27 24 21 21 23 23 23 23 23 22 22 23 25 25 24 24 24
36 44 45 45 44 42 39 38 37 36 36 40 43 45 45 47 49 49 49 50 50 51 51 52 52 51 51 51 49 48 46 45 44 44 44 44 42 41 41 40 39 38 36 35 34 32 32 33 34 34 33 33 33 31 28 26 24 24 27 31 33 35 35 35 34 31 30 29 26 23 20 21 23 23 22 22 23 23 22 23 24 24 24 24 25
26 38 41 42 43 41 38 38 37 37 39 42 43 44 46 48 48 49 50 50 51 52 52 52 53 52 52 52 50 48 46 44 43 43 43 43 42 41 40 39 38 36 35 33 32 30 30 31 32 33 33 32 31 29 28 27 27 25 26 28 31 34 36 35 33 30 30 29 26 22 20 22 23 23 21 21 22 23 22 23 23 24 24 25 25
17 23 32 40 43 41 39 39 38 39 41 43 43 45 47 48 48 49 50 49 51 53 53 53 53 54 53 52 51 49 47 45 43 43 42 41 40 39 38 37 37 36 35 34 33 31 30 30 31 33 33 32 31 29 27 28 28 26 25 26 30 32 34 34 32 30 29 27 26 24 21 22 23 22 21 21 21 21 22 24 25 25 25 26 26
26 21 22 33 38 36 36 38 38 40 42 43 44 45 47 48 49 49 50 50 51 53 53 53 53 54 53 51 50 49 47 45 43 42 40 39 39 38 37 36 36 36 35 34 33 32 31 31 31 32 32 31 30 28 28 28 28 27 25 26 28 30 33 33 32 30 29 26 27 26 23 22 23 22 22 21 20 21 22 24 26 27 27 27 27
35 31 25 28 32 30 30 35 41 43 44 45 45 46 47 48 48 50 51 51 52 53 53 53 53 53 52 51 49 48 47 45 42 40 38 38 38 37 35 34 33 33 32 32 32 32 31 30 30 30 30 29 29 28 27 28 27 27 25 25 25 27 31 34 33 31 29 27 27 24 21 21 21 21 21 21 21 21 22 24 25 27 27 27 27
25 27 26 26 32 33 31 36 45 48 47 47 47 47 48 48 48 50 52 53 54 55 53 51 51 52 51 50 48 47 46 44 41 38 37 37 36 35 34 33 32 31 31 31 30 29 28 27 27 28 28 28 27 26 25 25 25 25 25 24 23 24 27 31 31 31 29 28 26 24 22 21 20 20 21 21 21 21 22 23 24 26 26 26 26
15 16 17 17 22 32 38 41 46 50 48 48 49 50 51 50 49 50 52 52 54 54 51 49 49 50 50 48 47 46 45 42 40 38 37 36 35 34 34 33 32 32 32 31 28 25 24 23 22 22 23 24 24 24 25 25 24 24 24 24 22 23 25 27 29 30 29 28 28 26 24 21 21 21 21 22 22 22 22 22 23 24 24 24 22
20 21 19 18 20 28 38 44 47 50 50 48 50 52 53 52 51 51 50 50 52 52 49 48 49 49 48 47 46 45 43 41 39 38 37 36 34 33 32 32 32 32 31 28 26 25 23 22 20 20 21 22 23 23 23 23 22 22 22 22 22 24 26 27 29 29 27 26 26 25 23 20 20 21 22 23 23 23 22 22 23 23 23 21 19
17 20 19 17 20 25 34 42 48 51 52 52 53 54 54 52 50 49 48 48 49 49 47 47 48 47 46 45 44 42 41 39 39 38 37 35 33 31 30 30 30 29 28 27 27 26 26 24 20 17 18 18 19 20 20 20 20 20 21 21 22 23 25 26 27 25 22 22 23 22 21 20 20 21 22 23 22 21 21 21 21 20 18 17 18
11 12 12 11 12 15 21 31 41 46 47 48 50 50 50 49 47 46 45 45 45 46 45 46 46 45 44 42 41 40 39 39 39 37 35 33 31 29 29 28 27 27 26 26 25 25 25 22 15 12 13 14 16 18 17 16 16 18 18 19 20 21 22 22 22 20 19 21 22 21 21 21 20 20 21 20 19 19 18 17 17 17 17 18 20
10 10 9 11 10 7 8 15 27 38 39 39 44 46 46 45 44 43 43 43 43 44 44 44 44 43 42 40 39 39 39 38 37 35 32 31 30 28 27 27 25 25 25 24 23 23 22 16 11 12 14 14 15 16 15 14 14 13 14 15 17 18 19 20 20 20 20 21 22 21 21 20 19 18 17 17 16 16 14 14 15 17 17 16 15
9 8 7 10 12 10 5 12 15 27 34 36 40 43 44 43 42 42 43 43 43 44 44 43 43 42 41 40 39 39 38 37 35 32 30 29 28 26 26 24 22 21 21 21 21 21 18 13 12 14 15 14 14 15 15 14 13 13 14 15 16 18 19 21 22 22 22 23 23 21 20 19 18 16 16 15 14 13 13 14 14 13 10 8 7
6 6 7 7 7 8 2 6 3 13 23 30 32 34 37 39 40 41 43 43 44 46 45 45 43 42 41 41 41 40 39 36 33 30 28 26 24 23 22 20 18 16 16 16 18 17 15 14 14 14 13 13 13 13 14 14 14 15 17 19 19 21 22 23 24 25 24 24 23 21 19 18 17 16 15 13 12 11 11 11 10 9 7 6 6
4 5 5 5 8 8 5 4 6 11 18 28 30 27 28 34 38 42 46 46 47 48 47 45 44 43 42 42 41 40 38 35 32 29 27 24 21 19 17 16 14 14 14 15 16 15 14 14 15 15 14 14 15 15 15 16 16 17 19 21 22 24 24 25 25 25 25 24 23 21 19 18 16 14 12 11 10 9 9 9 10 10 9 8 7
3 2 1 4 10 14 14 16 20 20 21 27 32 31 30 31 35 41 47 49 49 48 47 46 45 43 43 42 41 39 37 34 32 29 26 24 20 16 15 15 14 14 15 14 14 13 13 13 13 14 14 15 16 16 15 15 15 16 17 19 21 22 23 24 24 24 23 23 22 20 18 16 13 10 9 9 9 9 9 9 11 11 10 9 9
5 6 6 4 4 12 17 19 22 23 21 24 30 33 33 33 34 38 43 46 46 45 45 45 44 42 41 40 39 37 34 32 29 26 25 23 20 17 16 16 16 16 16 15 15 14 14 13 13 14 14 13 14 13 13 13 15 16 17 18 19 19 20 21 22 22 22 22 20 18 14 11 8 7 7 8 9 9 9 10 11 11 11 9 9
6 7 9 10 7 6 10 12 16 19 19 21 24 26 28 30 29 29 32 37 39 40 41 42 41 41 40 38 35 33 30 27 25 23 23 22 21 21 20 18 17 17 17 17 16 15 15 15 14 13 13 13 13 13 12 14 15 15 16 17 18 18 19 19 19 19 19 19 18 15 10 7 6 7 8 9 9 10 10 10 11 13 13 11 10
Wind_Direction
195 195 195 196 195 194 194 196 196 198 202 201 200 197 194 196 199 202 206 210 210 203 202 204 205 207 204 203 205 206 210 209 207 209 204 207 220 226 233 236 234 231 233 237 233 231 237 238 235 236 222 188 191 223 246 235 225 224 233 240 182 156 160 185 188 133 145 169 153 143 161 130 87 109 127 156 200 194 180 144 105 86 80 87 79
192 195 197 197 196 196 196 198 198 199 202 202 202 200 196 197 199 201 205 209 213 210 206 207 209 210 209 209 209 210 214 214 213 212 202 205 221 228 233 236 233 231 230 232 234 235 234 227 222 220 205 200 213 237 244 230 227 230 229 204 162 147 153 177 166 167 197 178 143 142 156 155 126 105 58 354 198 178 168 153 116 87 68 86 107
190 194 196 197 197 196 196 199 200 201 204 205 205 204 201 200 200 201 204 208 213 215 211 209 210 211 213 213 213 214 217 218 220 219 204 203 218 228 233 236 232 226 225 233 236 229 223 220 213 209 208 216 228 234 236 236 235 224 208 176 165 153 144 142 123 162 216 199 142 127 143 163 151 121 85 103 150 158 157 147 96 57 38 93 217
189 192 195 198 197 195 196 199 200 201 204 206 208 207 205 205 204 204 205 208 211 215 215 211 210 211 213 214 214 215 218 220 219 219 210 206 217 225 229 232 229 226 229 234 231 215 212 217 210 207 215 223 220 222 229 234 222 191 174 165 168 170 166 154 119 83 142 189 165 117 124 146 128 118 105 110 130 135 132 97 46 27 25 105 221
189 191 193 197 199 197 197 199 200 200 203 206 209 209 208 208 209 208 207 208 211 215 217 212 208 208 207 207 208 206 210 217 215 212 209 208 216 221 222 225 224 226 231 231 224 215 215 217 207 206 218 214 201 211 215 216 205 178 172 175 177 185 186 165 147 101 104 170 166 137 136 130 115 129 121 116 120 115 116 32 24 25 44 106 171
191 193 194 195 198 199 199 200 200 201 203 207 210 211 210 208 210 211 208 209 211 215 217 214 208 206 204 204 202 197 199 209 214 211 208 207 212 215 217 223 223 224 226 223 218 216 216 211 205 207 212 202 198 211 212 211 200 178 179 191 182 180 175 163 155 140 133 130 139 156 159 141 135 163 149 127 122 121 146 348 22 31 47 84 121
192 195 197 196 198 199 201 201 202 202 204 207 209 210 211 210 211 213 212 210 211 214 217 216 212 208 207 208 207 203 202 208 214 214 210 205 207 211 217 221 219 217 219 217 213 212 210 205 208 213 209 207 208 208 204 186 186 191 194 191 179 173 165 164 164 159 157 146 136 154 167 154 149 175 181 161 150 152 167 195 356 315 8 76 120
193 195 197 199 199 200 202 204 204 204 204 205 208 210 213 214 214 215 216 213 212 214 216 217 215 212 210 210 211 210 210 211 212 211 207 200 205 213 218 220 217 216 218 216 212 209 205 203 211 215 208 216 210 189 197 184 184 198 203 184 178 180 178 177 178 175 167 157 150 155 165 165 156 167 183 179 174 177 175 170 265 283 280 110 142
195 196 198 200 201 201 204 205 205 205 205 206 208 211 214 216 216 216 217 216 214 214 215 218 218 216 214 212 211 213 216 216 212 208 203 198 206 215 219 219 215 213 214 215 214 209 204 205 212 215 209 220 221 205 217 207 195 202 209 202 190 190 192 193 194 192 184 172 166 172 179 176 163 156 170 176 177 179 176 177 213 247 211 154 162
197 198 199 202 203 204 204 205 206 205 206 208 209 212 213 215 216 216 217 218 216 214 215 217 218 217 216 215 214 214 215 216 213 207 202 201 208 216 218 216 209 209 212 215 216 210 206 205 208 212 215 227 235 226 223 216 204 210 227 239 220 196 193 196 199 201 201 185 172 186 191 183 172 160 159 158 164 177 178 179 187 200 189 174 185
196 200 202 203 205 205 204 205 206 205 206 207 208 211 213 215 216 217 217 218 218 216 215 215 217 217 217 218 217 216 216 214 212 207 203 205 211 215 216 212 209 213 215 214 216 213 208 203 200 206 217 228 236 230 224 213 201 212 232 233 215 194 186 193 200 202 205 198 183 180 174 178 182 179 178 161 155 178 187 199 220 173 173 177 198
196 200 202 202 202 202 203 205 206 205 205 206 207 210 213 215 216 217 217 217 217 217 216 215 216 217 217 219 219 219 218 216 213 209 207 209 212 212 210 208 210 214 216 215 216 217 211 200 194 202 215 224 229 230 225 209 203 210 218 214 203 194 186 190 199 200 202 201 186 164 148 165 183 176 194 187 186 213 214 223 236 208 188 184 195
196 198 200 199 199 200 202 204 204 204 205 205 206 208 211 214 215 216 216 216 216 217 217 216 216 216 217 218 219 220 220 219 216 213 211 211 211 208 206 209 212 213 217 218 217 220 218 205 201 209 221 223 219 231 230 211 209 209 210 208 199 198 193 191 197 200 201 195 184 172 160 178 205 204 213 213 218 231 225 227 242 235 224 211 199
196 197 198 198 199 201 202 203 204 205 205 205 205 207 209 211 214 216 216 216 216 216 217 217 217 217 217 218 219 219 219 219 218 216 215 214 211 209 210 214 217 218 221 222 219 222 223 215 212 218 227 224 215 229 234 218 211 208 209 209 201 202 202 198 200 204 204 197 192 188 179 187 207 213 219 222 223 229 227 227 237 239 237 239 240
198 197 198 200 201 201 202 203 205 205 205 204 204 206 208 210 212 214 215 215 215 215 216 217 218 218 217 218 219 219 219 219 218 218 217 217 215 213 215 218 222 223 223 223 221 222 223 217 216 222 228 229 222 227 229 222 219 215 210 208 204 204 206 207 206 209 213 207 199 197 193 194 198 201 208 214 216 218 222 231 237 243 248 253 257
196 196 198 201 202 202 202 203 204 205 205 204 205 205 207 209 211 213 214 215 216 216 216 217 219 218 217 217 218 218 219 218 218 217 217 219 219 217 218 220 223 224 224 223 221 223 225 219 218 224 229 232 231 228 226 223 226 226 216 207 206 206 209 212 209 211 218 214 206 204 201 200 201 203 205 210 218 222 228 237 243 252 257 254 253
192 193 197 201 203 203 202 202 202 203 204 205 206 206 207 209 210 211 213 215 217 217 216 217 218 219 218 217 217 217 218 217 217 217 215 218 220 220 221 222 222 222 220 220 220 223 226 223 224 228 230 235 235 228 224 223 225 230 224 214 214 215 213 214 212 213 218 218 216 214 206 203 208 213 215 218 225 231 236 242 245 250 253 249 249
193 194 196 200 203 204 203 203 204 204 206 207 208 207 207 209 211 211 212 214 217 217 217 218 218 218 218 216 216 217 218 218 217 217 215 216 218 219 221 222 223 221 218 218 220 224 225 225 229 231 233 238 236 224 222 222 221 226 227 222 223 226 221 215 215 216 217 218 219 218 210 207 211 215 218 223 229 234 239 244 246 245 246 247 252
195 198 200 202 205 206 205 205 206 207 209 209 208 207 208 210 212 213 214 216 218 217 217 218 217 218 218 217 216 216 218 219 217 217 216 217 219 219 220 222 223 222 220 218 220 223 225 227 230 233 235 240 237 225 221 222 219 220 225 224 222 226 227 221 217 216 217 217 219 220 215 208 209 214 218 222 228 232 235 237 237 236 240 245 250
197 201 205 207 208 209 208 207 207 208 209 208 207 207 208 209 211 214 215 216 217 217 216 217 217 217 218 217 216 216 218 219 218 217 217 219 220 220 221 222 223 223 223 222 223 225 227 229 231 234 236 240 238 228 221 223 221 217 221 223 220 222 226 225 221 218 217 217 219 222 219 210 208 214 219 222 225 230 235 235 235 235 238 245 249
199 203 205 208 209 211 210 209 207 206 206 206 207 208 208 209 211 213 214 214 215 216 216 216 217 217 217 217 216 216 218 220 219 218 218 220 221 222 223 223 223 225 225 226 228 229 231 233 234 236 238 241 239 232 224 223 224 219 218 221 221 220 223 226 223 220 220 218 217 220 220 216 215 217 222 226 229 233 239 241 243 246 247 252 257
200 203 205 206 207 209 209 208 205 203 204 206 207 207 208 209 211 212 213 214 215 216 216 216 216 216 217 217 217 217 219 221 220 219 220 221 222 223 224 224 225 226 228 229 231 232 233 235 236 238 240 241 240 236 230 226 226 224 219 220 221 219 220 222 221 221 221 218 216 217 219 219 221 222 224 229 233 233 236 239 241 248 252 254 259
201 203 203 203 204 206 206 205 202 202 203 205 205 206 208 209 210 212 213 215 216 216 217 217 217 217 217 217 217 218 219 221 221 221 222 222 223 223 225 226 227 228 229 231 233 234 235 236 238 240 241 242 241 240 237 232 230 227 224 222 221 218 217 218 219 220 220 219 218 218 219 220 223 225 224 229 233 232 234 238 240 245 249 251 254
199 199 198 202 203 203 203 203 202 203 204 203 204 205 207 207 209 212 214 215 216 216 216 217 217 217 217 216 217 218 220 220 221 222 223 224 224 224 225 227 229 229 231 232 234 236 237 238 239 240 241 242 242 242 241 238 234 231 229 226 222 221 219 218 219 220 220 220 220 221 222 222 223 226 227 230 234 235 237 240 241 242 245 247 249
194 195 195 199 201 201 203 204 204 204 204 203 203 204 205 206 208 210 213 215 216 216 216 217 217 217 216 216 217 218 220 221 222 222 224 225 225 225 226 227 229 230 231 232 234 235 237 238 240 241 242 243 244 244 243 241 238 233 231 228 226 224 223 220 220 222 223 222 223 225 227 226 225 226 229 233 234 236 240 243 245 244 244 248 252
190 191 193 197 201 202 203 203 203 203 203 203 203 203 204 205 207 209 211 214 215 215 216 217 218 217 216 216 217 218 220 222 222 223 224 225 225 225 227 228 229 231 232 233 234 235 237 239 241 242 243 244 244 244 243 242 240 236 232 228 227 227 227 225 223 223 225 225 225 228 229 229 229 230 234 237 237 240 248 254 253 249 250 256 258
187 187 190 196 200 201 200 201 203 203 203 204 203 203 204 205 206 207 210 213 214 215 215 216 218 217 217 218 218 218 221 222 222 223 224 224 224 225 227 229 230 230 232 234 235 237 238 240 241 242 243 243 243 243 243 241 240 239 234 229 228 230 229 228 226 225 227 227 227 229 230 231 232 233 236 239 238 242 252 259 258 254 256 259 258
185 185 188 191 194 197 198 199 201 202 203 204 205 205 205 205 205 206 208 211 214 214 214 215 217 217 217 219 220 220 222 223 222 223 224 224 225 225 227 229 230 231 232 234 237 238 239 240 241 242 243 243 242 242 242 240 239 239 236 232 231 233 232 230 228 227 228 230 229 229 231 233 235 236 238 240 239 239 245 252 256 256 256 256 257
182 184 187 190 194 198 199 200 201 201 202 204 206 206 206 206 206 205 207 210 212 213 213 214 216 217 218 219 221 221 222 222 222 223 223 224 225 225 226 228 230 231 233 235 237 238 239 240 240 241 243 242 242 241 240 240 240 239 239 236 233 235 236 233 229 228 229 230 230 230 232 234 238 242 244 244 242 240 241 247 252 254 254 255 258
183 187 191 195 199 200 201 202 203 204 204 205 207 207 206 206 206 206 207 209 211 212 213 213 215 218 219 220 221 221 221 221 222 223 224 224 225 225 225 225 228 231 233 234 235 237 238 240 240 241 241 241 241 240 240 242 242 242 243 240 235 237 240 235 231 230 229 229 230 230 231 233 237 241 243 246 247 242 242 249 255 256 255 255 261
187 192 195 198 201 202 204 206 207 208 208 208 209 208 208 207 206 207 207 207 209 212 213 213 215 218 219 219 221 221 220 221 222 223 224 224 224 224 223 224 227 230 232 233 233 235 237 238 240 241 242 242 242 242 242 244 246 246 246 242 238 240 241 237 234 232 229 229 230 230 230 232 235 238 239 244 248 246 245 253 261 262 261 261 266
189 195 199 201 203 203 206 210 212 213 212 212 212 209 207 207 208 208 208 207 208 212 213 214 215 217 218 219 221 221 221 221 222 222 224 224 223 222 222 223 225 228 230 231 232 234 236 238 240 242 243 244 244 244 244 246 249 250 249 244 240 240 242 241 239 234 229 230 231 230 230 232 235 239 239 242 248 251 249 253 259 261 263 265 269
189 195 199 200 201 203 205 209 212 213 214 215 214 211 210 211 211 209 207 206 208 211 213 214 214 216 218 219 221 221 221 221 221 221 222 223 221 221 221 223 224 226 228 230 231 233 236 238 241 243 245 246 245 245 244 245 248 251 252 248 242 239 242 245 244 237 231 231 233 232 232 233 238 245 245 243 248 251 248 249 254 257 260 264 269
192 193 195 196 199 202 205 208 209 210 212 214 214 215 216 215 212 209 206 206 208 211 212 213 214 216 218 218 221 221 220 220 220 219 220 220 220 220 221 222 222 223 225 228 230 232 235 238 241 243 245 247 246 246 246 246 249 253 254 250 243 239 242 245 246 240 232 230 232 232 233 236 244 251 250 245 248 251 248 248 251 255 259 264 269
199 195 195 196 198 201 205 208 210 210 210 211 212 215 216 213 210 208 206 207 208 210 212 212 213 216 217 216 218 220 219 218 218 217 217 218 219 219 219 219 220 222 224 226 228 230 233 236 239 241 243 245 246 248 249 251 256 256 254 249 242 238 241 244 245 240 231 229 232 231 234 240 247 253 251 246 249 251 249 251 253 255 258 262 267
212 204 205 207 207 208 211 213 212 212 212 211 211 212 212 210 209 208 207 207 207 209 211 211 212 215 216 215 215 217 217 216 215 215 215 216 217 218 217 217 217 219 222 224 225 228 230 233 237 240 241 243 246 249 250 253 255 252 250 247 240 237 239 241 241 236 229 228 229 229 236 244 251 254 247 243 249 250 248 252 256 256 260 263 268
252 227 223 222 218 216 218 218 215 213 213 212 210 210 210 208 207 207 207 207 207 208 211 211 210 212 214 213 212 213 214 214 213 212 212 214 215 215 216 216 216 216 219 221 224 226 229 232 236 239 240 243 247 250 251 252 251 248 247 245 239 235 235 236 236 233 230 228 227 232 244 254 257 253 243 243 252 251 249 253 256 260 265 268 270
274 266 242 226 222 221 223 222 217 215 215 214 210 209 209 207 206 206 206 206 207 209 211 211 209 209 210 210 209 210 211 211 211 210 210 211 212 213 214 215 215 217 218 221 223 224 227 231 235 238 240 242 247 251 253 251 248 248 248 242 237 235 233 232 231 229 230 232 234 240 252 258 256 250 243 246 254 254 254 257 258 263 269 271 275
268 262 243 220 215 223 232 232 225 220 217 214 211 209 208 207 207 206 205 205 207 209 210 210 208 207 207 207 207 207 208 208 208 207 208 209 210 211 212 212 214 217 219 221 222 223 225 228 231 234 237 241 246 251 251 249 248 249 248 242 239 237 233 230 228 228 233 239 240 245 254 259 255 247 243 248 255 257 260 262 263 266 272 276 280
276 263 251 231 217 215 223 230 230 226 220 215 212 209 207 207 206 205 204 205 207 209 209 209 205 203 203 204 204 204 205 205 205 205 205 207 208 208 209 210 212 215 218 220 222 223 225 227 229 232 235 240 244 244 244 245 246 249 248 243 239 235 231 228 226 229 237 242 242 246 257 259 255 250 249 253 257 259 262 264 264 268 274 279 282
296 287 285 274 246 229 223 224 228 228 222 216 212 208 207 207 204 203 205 206 206 207 207 204 200 198 199 201 201 202 202 202 204 204 203 204 206 207 207 208 210 213 216 218 219 219 220 223 227 232 235 238 240 241 242 244 243 242 241 238 234 230 227 225 227 235 245 245 241 248 259 260 255 254 256 258 260 261 262 262 264 270 276 278 276
294 297 303 311 295 262 237 225 224 224 222 219 214 208 206 205 203 203 206 205 203 203 202 198 195 194 195 196 198 198 198 199 201 202 201 201 204 206 207 207 209 211 212 214 215 217 218 217 219 226 235 241 245 246 244 239 236 236 234 232 230 228 228 231 237 245 247 242 242 252 261 258 254 256 258 258 259 260 261 262 268 274 276 274 272
304 301 301 307 305 282 252 232 222 219 219 217 212 206 203 203 203 203 204 201 198 198 197 193 190 190 191 192 193 194 195 197 198 199 199 201 202 203 203 205 206 208 209 212 215 217 216 214 215 223 233 238 240 239 232 226 229 233 231 230 232 231 232 235 240 241 238 238 246 254 256 254 254 255 255 254 255 259 263 268 274 278 278 277 279
316 303 297 295 300 293 265 236 217 211 211 209 204 201 200 200 200 199 198 196 194 193 190 187 186 186 186 187 189 191 194 195 196 197 198 198 197 196 198 202 205 207 209 211 215 217 216 213 211 217 225 225 221 220 214 209 213 218 218 221 223 224 226 228 230 231 233 239 245 250 253 255 254 250 249 252 257 262 268 274 279 282 282 282 282
330 305 278 262 258 264 277 250 219 207 205 204 202 201 200 198 196 194 192 191 189 186 183 182 182 182 182 183 186 189 192 193 194 194 192 192 192 192 196 200 203 205 208 210 213 218 218 212 197 199 212 215 211 206 199 193 197 205 208 209 209 210 215 220 223 230 235 238 242 248 252 254 252 248 250 255 261 267 273 278 279 278 278 277 274
345 329 294 260 234 211 270 300 247 207 199 200 202 203 199 194 190 188 187 186 183 180 179 178 177 177 178 179 182 184 186 188 189 189 189 189 191 193 194 196 199 203 207 208 210 213 210 198 187 193 201 206 207 205 199 197 204 214 215 211 208 208 213 219 225 231 234 236 242 248 250 249 248 249 252 257 264 271 275 274 272 269 271 277 270
336 329 313 278 229 196 225 327 265 188 189 193 195 195 192 187 184 182 181 181 179 177 174 172 171 172 173 177 179 181 181 182 183 185 187 190 191 192 194 197 202 205 202 197 196 197 192 186 188 193 197 202 211 215 213 211 214 218 216 212 208 208 211 217 224 229 232 236 242 246 246 245 248 253 259 262 265 267 268 266 261 260 274 290 284
319 316 312 269 232 214 203 193 188 193 198 194 188 182 181 182 181 179 178 176 173 171 168 166 167 169 172 174 177 178 178 178 180 182 185 185 185 188 192 197 200 198 189 182 182 183 183 186 192 195 197 206 216 223 224 222 220 217 213 210 208 207 209 214 220 226 231 237 241 242 242 247 254 260 260 255 252 259 269 271 268 271 281 287 281
27 33 306 246 230 217 208 209 210 207 197 186 179 174 170 167 168 170 171 168 165 163 161 161 164 168 170 172 174 176 176 177 178 179 179 179 181 186 188 186 181 176 174 175 178 179 181 188 198 204 206 212 218 222 222 222 221 219 215 213 212 212 214 219 225 231 236 240 243 244 245 250 253 252 247 247 255 271 284 283 279 279 280 279 276
60 89 105 104 185 201 196 193 190 182 170 163 162 161 158 153 150 153 157 156 155 155 156 159 163 166 167 170 171 173 176 177 178 178 178 179 179 178 175 172 168 167 170 175 179 182 184 190 202 215 221 224 223 219 214 216 219 220 219 221 224 225 228 231 235 238 241 242 244 244 241 239 238 242 255 269 277 283 287 289 287 283 279 279 275
89 103 101 89 96 157 166 152 148 150 149 144 139 140 144 145 144 149 155 157 157 155 154 157 162 164 166 168 169 170 174 176 176 178 181 180 174 168 168 171 172 173 177 180 183 190 194 196 203 217 227 223 213 207 207 209 211 213 215 217 221 224 225 227 230 233 234 234 234 231 224 229 250 265 280 291 291 289 292 295 291 284 279 277 272
Height
1506 1508 1510 1512 1513 1515 1518 1520 1522 1523 1524 1525 1527 1529 1531 1533 1534 1535 1537 1539 1541 1543 1545 1546 1548 1550 1552 1554 1555 1557 1558 1560 1561 1562 1563 1564 1565 1566 1566 1567 1568 1569 1570 1570 1571 1571 1571 1572 1572 1572 1573 1573 1573 1573 1573 1573 1573 1573 1573 1574 1574 1574 1575 1575 1575 1576 1576 1577 1577 1577 1577 1577 1578 1578 1579 1579 1579 1580 1581 1581 1580 1580 1580 1580 1580
1504 1507 1509 1510 1511 1513 1515 1518 1520 1520 1521 1522 1524 1526 1529 1531 1532 1533 1535 1536 1538 1540 1542 1543 1545 1547 1549 1551 1553 1555 1557 1558 1559 1561 1562 1563 1564 1564 1565 1566 1567 1568 1569 1569 1569 1570 1570 1571 1571 1571 1571 1572 1572 1572 1572 1572 1572 1572 1571 1572 1573 1574 1574 1575 1575 1576 1576 1576 1576 1576 1576 1577 1578 1578 1579 1578 1578 1579 1581 1580 1580 1580 1580 1579 1579
1500 1503 1506 1507 1509 1510 1512 1514 1517 1518 1519 1520 1522 1524 1527 1528 1530 1531 1532 1533 1535 1537 1539 1541 1543 1546 1548 1550 1552 1554 1556 1557 1558 1560 1561 1562 1562 1563 1564 1565 1566 1567 1567 1568 1568 1569 1569 1569 1570 1570 1570 1571 1570 1570 1570 1570 1570 1570 1571 1571 1572 1573 1573 1574 1575 1575 1575 1576 1576 1576 1576 1577 1577 1578 1579 1577 1577 1579 1581 1581 1580 1580 1580 1579 1579
1496 1498 1502 1504 1506 1507 1508 1510 1513 1515 1517 1518 1519 1521 1523 1525 1527 1528 1530 1531 1533 1535 1537 1540 1542 1545 1547 1549 1551 1553 1554 1556 1557 1558 1560 1560 1561 1562 1562 1563 1564 1565 1565 1566 1567 1567 1568 1568 1569 1568 1569 1569 1569 1569 1569 1569 1570 1570 1570 1571 1572 1572 1573 1574 1574 1574 1575 1575 1575 1576 1576 1577 1577 1577 1578 1579 1579 1580 1580 1580 1580 1580 1580 1579 1578
1491 1494 1496 1500 1502 1502 1504 1506 1509 1511 1513 1514 1515 1516 1518 1520 1523 1526 1528 1529 1531 1533 1536 1539 1541 1543 1545 1548 1550 1552 1553 1554 1555 1556 1557 1558 1559 1559 1560 1561 1562 1563 1564 1564 1565 1566 1566 1567 1567 1567 1568 1568 1568 1568 1569 1569 1569 1570 1570 1570 1571 1572 1572 1573 1573 1574 1574 1574 1575 1575 1575 1576 1576 1577 1578 1579 1579 1579 1579 1579 1579 1579 1579 1579 1578
1486 1489 1491 1494 1497 1499 1500 1502 1504 1506 1508 1510 1511 1513 1516 1518 1520 1523 1526 1528 1529 1531 1534 1536 1538 1540 1542 1544 1546 1548 1549 1550 1551 1553 1554 1556 1556 1557 1559 1560 1561 1561 1562 1563 1563 1564 1565 1565 1566 1566 1567 1567 1567 1568 1568 1569 1569 1569 1569 1570 1570 1571 1572 1572 1572 1573 1573 1573 1574 1574 1575 1575 1576 1576 1577 1578 1579 1579 1579 1579 1579 1579 1579 1578 1578
1482 1485 1487 1490 1493 1495 1497 1498 1499 1501 1503 1506 1509 1511 1513 1516 1518 1520 1523 1525 1527 1529 1531 1534 1536 1538 1539 1541 1543 1544 1546 1547 1549 1551 1553 1554 1555 1555 1557 1558 1559 1560 1560 1561 1562 1563 1563 1564 1564 1565 1566 1566 1566 1567 1567 1568 1568 1568 1568 1569 1569 1570 1571 1571 1572 1572 1572 1573 1573 1573 1574 1575 1575 1576 1576 1577 1577 1578 1578 1578 1578 1578 1578 1578 1577
1478 1481 1483 1486 1488 1490 1492 1494 1495 1498 1500 1503 1505 1508 1510 1512 1515 1517 1520 1522 1525 1527 1528 1531 1533 1535 1537 1539 1540 1542 1544 1545 1548 1550 1551 1552 1553 1554 1555 1556 1557 1558 1558 1559 1560 1561 1562 1562 1563 1564 1565 1565 1565 1566 1566 1566 1567 1567 1568 1569 1569 1570 1570 1571 1571 1571 1572 1572 1573 1573 1574 1574 1574 1575 1575 1576 1576 1577 1577 1578 1578 1578 1578 1577 1576
1473 1476 1479 1481 1484 1486 1488 1491 1494 1496 1499 1500 1502 1504 1506 1508 1512 1514 1517 1519 1522 1524 1526 1527 1530 1533 1534 1536 1538 1540 1542 1544 1546 1548 1549 1551 1551 1552 1553 1554 1555 1556 1556 1557 1558 1559 1560 1561 1562 1562 1563 1563 1564 1565 1565 1565 1566 1566 1567 1569 1569 1569 1570 1570 1571 1571 1572 1572 1573 1573 1574 1574 1574 1574 1574 1575 1576 1576 1577 1577 1577 1577 1577 1577 1577
1469 1471 1474 1476 1479 1482 1485 1487 1490 1493 1495 1498 1500 1502 1503 1505 1508 1511 1513 1516 1518 1521 1523 1525 1527 1530 1532 1533 1535 1537 1540 1542 1544 1546 1547 1548 1549 1550 1551 1552 1553 1554 1555 1555 1556 1558 1559 1560 1561 1561 1562 1562 1563 1564 1564 1564 1565 1566 1567 1568 1569 1569 1569 1570 1570 1570 1571 1572 1573 1573 1574 1574 1574 1574 1574 1574 1575 1576 1576 1576 1577 1576 1577 1577 1577
1464 1467 1470 1472 1475 1478 1482 1484 1486 1489 1491 1494 1497 1499 1501 1502 1504 1507 1509 1512 1515 1517 1520 1522 1524 1526 1528 1530 1532 1534 1537 1539 1541 1543 1545 1546 1547 1547 1548 1550 1551 1552 1552 1554 1555 1556 1557 1559 1560 1560 1561 1561 1562 1563 1563 1563 1564 1565 1566 1567 1567 1568 1569 1569 1569 1570 1571 1572 1573 1573 1573 1574 1574 1574 1574 1574 1574 1574 1575 1575 1576 1576 1576 1576 1576
1460 1463 1465 1468 1472 1475 1477 1479 1481 1485 1487 1489 1492 1495 1497 1499 1500 1503 1506 1509 1511 1514 1516 1518 1521 1523 1525 1527 1529 1531 1534 1535 1537 1539 1541 1543 1544 1545 1546 1547 1549 1550 1551 1551 1552 1554 1555 1557 1558 1559 1559 1560 1561 1562 1562 1563 1563 1565 1565 1565 1566 1567 1568 1568 1569 1569 1570 1571 1572 1572 1573 1573 1574 1574 1574 1574 1574 1574 1574 1575 1575 1575 1576 1576 1576
1455 1458 1461 1464 1467 1469 1472 1474 1477 1479 1482 1484 1487 1491 1493 1495 1497 1499 1502 1505 1508 1510 1513 1515 1517 1519 1521 1524 1526 1528 1531 1532 1534 1536 1538 1540 1541 1542 1543 1544 1546 1547 1548 1549 1550 1551 1553 1555 1556 1557 1558 1559 1560 1561 1561 1562 1563 1563 1564 1564 1565 1566 1566 1567 1567 1568 1569 1569 1570 1571 1571 1572 1572 1573 1573 1573 1573 1573 1573 1574 1574 1574 1574 1575 1575
1451 1453 1456 1459 1461 1463 1465 1468 1471 1473 1476 1479 1483 1486 1489 1491 1493 1495 1498 1501 1504 1507 1509 1512 1514 1516 1518 1521 1523 1525 1527 1529 1532 1534 1535 1537 1538 1539 1540 1541 1542 1544 1545 1547 1548 1549 1551 1553 1554 1555 1556 1558 1559 1560 1560 1561 1561 1562 1563 1563 1564 1564 1565 1565 1566 1567 1567 1568 1568 1569 1570 1570 1571 1571 1572 1572 1572 1571 1572 1572 1572 1573 1573 1573 1573
1446 1448 1451 1453 1455 1458 1460 1463 1465 1468 1471 1475 1478 1481 1484 1486 1489 1491 1494 1497 1500 1503 1506 1508 1510 1513 1515 1517 1520 1522 1524 1526 1529 1531 1533 1534 1536 1537 1538 1539 1540 1542 1543 1545 1546 1547 1549 1551 1552 1553 1555 1556 1558 1559 1559 1559 1560 1561 1561 1562 1562 1563 1563 1564 1564 1565 1565 1566 1566 1567 1568 1568 1569 1570 1570 1571 1570 1570 1570 1570 1571 1571 1572 1572 1572
1441 1444 1446 1448 1450 1453 1456 1458 1461 1464 1467 1470 1473 1476 1478 1481 1484 1487 1490 1494 1497 1500 1502 1505 1507 1510 1512 1514 1516 1519 1521 1523 1526 1528 1530 1531 1533 1534 1535 1537 1538 1540 1541 1543 1544 1545 1548 1549 1550 1552 1553 1554 1556 1557 1558 1558 1558 1559 1559 1560 1560 1561 1562 1562 1563 1563 1563 1564 1565 1565 1566 1566 1567 1568 1568 1569 1569 1569 1569 1569 1570 1570 1570 1570 1569
1437 1439 1441 1444 1447 1450 1452 1454 1457 1460 1463 1465 1468 1470 1473 1477 1480 1483 1487 1491 1493 1496 1499 1501 1504 1506 1508 1511 1513 1515 1518 1520 1522 1525 1527 1529 1530 1532 1533 1535 1536 1538 1539 1541 1542 1543 1546 1547 1548 1550 1551 1552 1554 1555 1555 1556 1556 1556 1557 1558 1558 1559 1560 1561 1561 1561 1562 1563 1563 1564 1565 1565 1565 1565 1566 1567 1567 1567 1568 1568 1568 1568 1568 1568 1567
1432 1434 1437 1440 1443 1445 1448 1451 1453 1455 1458 1461 1464 1468 1471 1474 1477 1480 1483 1486 1489 1492 1495 1498 1500 1502 1505 1507 1510 1512 1515 1517 1520 1522 1524 1526 1527 1529 1531 1532 1534 1536 1537 1539 1540 1541 1543 1545 1546 1547 1549 1550 1551 1553 1553 1554 1554 1554 1555 1555 1556 1557 1558 1559 1559 1560 1560 1561 1561 1562 1563 1563 1563 1564 1564 1565 1565 1566 1566 1566 1566 1566 1566 1566 1566
1428 1430 1433 1436 1438 1440 1443 1446 1449 1452 1455 1458 1462 1466 1469 1472 1474 1476 1479 1482 1486 1489 1492 1495 1497 1499 1501 1504 1507 1510 1512 1515 1517 1519 1521 1523 1524 1526 1528 1529 1531 1533 1535 1537 1538 1538 1540 1541 1543 1544 1546 1547 1548 1550 1550 1551 1551 1552 1553 1553 1554 1555 1556 1556 1557 1558 1559 1559 1559 1560 1561 1561 1562 1562 1562 1563 1563 1564 1565 1565 1565 1565 1565 1565 1565
1423 1426 1428 1430 1433 1436 1438 1441 1444 1447 1451 1455 1460 1463 1466 1469 1472 1474 1477 1480 1483 1486 1489 1491 1494 1496 1498 1501 1504 1507 1509 1512 1514 1516 1518 1519 1522 1523 1525 1527 1528 1530 1532 1534 1535 1536 1537 1538 1540 1541 1542 1543 1545 1546 1547 1548 1549 1550 1550 1551 1552 1553 1553 1554 1555 1556 1557 1557 1558 1558 1559 1559 1560 1560 1561 1561 1561 1562 1562 1563 1563 1564 1564 1564 1564
1417 1420 1423 1426 1429 1432 1435 1438 1440 1444 1448 1452 1456 1459 1463 1466 1469 1471 1474 1477 1480 1482 1485 1488 1490 1493 1495 1497 1500 1503 1506 1508 1511 1513 1515 1517 1519 1521 1522 1524 1526 1527 1529 1530 1532 1533 1534 1535 1536 1537 1539 1540 1542 1543 1544 1545 1546 1547 1548 1549 1550 1551 1551 1552 1553 1554 1555 1555 1556 1556 1557 1557 1558 1558 1559 1560 1560 1560 1560 1561 1561 1561 1562 1562 1562
1411 1413 1417 1421 1425 1429 1432 1435 1438 1440 1443 1447 1451 1454 1458 1462 1465 1468 1471 1473 1476 1478 1481 1484 1487 1490 1492 1494 1497 1500 1503 1505 1507 1509 1511 1514 1516 1517 1520 1522 1523 1524 1525 1527 1528 1529 1531 1532 1533 1534 1535 1536 1538 1540 1541 1542 1543 1544 1545 1546 1547 1548 1548 1549 1550 1551 1552 1553 1553 1554 1554 1555 1556 1556 1557 1558 1558 1559 1558 1559 1559 1559 1560 1560 1560
1405 1408 1412 1417 1421 1425 1429 1433 1436 1437 1437 1440 1445 1448 1452 1456 1460 1464 1467 1469 1472 1475 1479 1482 1484 1486 1488 1491 1494 1497 1499 1501 1503 1506 1508 1510 1513 1515 1517 1518 1520 1521 1522 1523 1525 1526 1527 1528 1529 1530 1531 1533 1534 1536 1538 1539 1540 1541 1542 1543 1544 1545 1545 1546 1547 1548 1549 1550 1550 1551 1552 1553 1554 1554 1555 1556 1556 1557 1557 1557 1557 1557 1557 1558 1558
1403 1407 1411 1415 1419 1423 1427 1431 1434 1435 1435 1436 1438 1442 1446 1451 1455 1459 1462 1466 1469 1473 1476 1479 1481 1483 1486 1489 1491 1493 1496 1498 1500 1502 1504 1506 1509 1512 1514 1515 1516 1518 1519 1520 1521 1523 1524 1525 1526 1527 1528 1529 1530 1532 1534 1535 1536 1538 1539 1540 1541 1542 1543 1543 1544 1545 1546 1547 1548 1549 1550 1551 1551 1552 1553 1553 1554 1555 1555 1555 1555 1556 1556 1556 1557
1401 1405 1409 1413 1417 1420 1424 1426 1429 1431 1433 1433 1435 1438 1441 1445 1449 1453 1458 1462 1466 1470 1473 1476 1478 1481 1483 1485 1487 1489 1491 1493 1496 1498 1500 1503 1506 1508 1510 1511 1513 1514 1515 1517 1518 1519 1520 1521 1522 1523 1524 1525 1527 1528 1530 1532 1533 1535 1536 1537 1538 1539 1540 1541 1542 1543 1544 1545 1545 1546 1547 1548 1549 1549 1550 1551 1552 1553 1554 1554 1554 1554 1554 1555 1555
1398 1402 1406 1410 1413 1416 1419 1422 1424 1427 1430 1431 1433 1436 1439 1442 1446 1450 1454 1459 1462 1466 1470 1472 1475 1478 1480 1481 1483 1485 1487 1489 1492 1494 1497 1499 1502 1504 1506 1507 1509 1510 1512 1513 1514 1515 1516 1517 1518 1520 1521 1522 1524 1525 1526 1528 1531 1532 1533 1535 1536 1537 1538 1539 1540 1541 1542 1543 1543 1544 1545 1546 1547 1547 1549 1550 1550 1551 1552 1552 1553 1552 1553 1553 1553
1396 1399 1403 1407 1410 1413 1415 1418 1421 1423 1426 1429 1431 1434 1437 1440 1443 1447 1451 1455 1459 1463 1466 1469 1471 1474 1476 1478 1479 1481 1483 1485 1488 1491 1493 1496 1498 1500 1501 1503 1505 1507 1508 1510 1511 1512 1513 1514 1515 1517 1519 1520 1521 1523 1524 1526 1528 1530 1531 1532 1534 1535 1535 1536 1537 1539 1540 1541 1541 1542 1543 1544 1545 1546 1547 1548 1548 1549 1550 1551 1551 1551 1551 1551 1551
1393 1396 1400 1403 1406 1409 1411 1414 1417 1421 1424 1426 1428 1431 1433 1436 1440 1443 1447 1451 1455 1458 1462 1465 1468 1470 1472 1473 1475 1477 1479 1482 1485 1487 1490 1492 1494 1496 1498 1500 1502 1504 1505 1506 1507 1509 1510 1511 1513 1515 1516 1518 1519 1520 1521 1523 1526 1528 1529 1530 1531 1532 1532 1533 1535 1537 1538 1538 1539 1540 1541 1542 1543 1544 1545 1545 1546 1546 1547 1547 1548 1549 1549 1549 1549
1391 1394 1398 1401 1404 1406 1409 1412 1414 1417 1421 1423 1426 1429 1431 1434 1437 1440 1443 1446 1450 1454 1457 1461 1463 1465 1467 1469 1472 1474 1476 1479 1482 1484 1487 1488 1490 1492 1494 1496 1498 1500 1501 1503 1504 1506 1508 1509 1510 1512 1514 1515 1516 1517 1517 1520 1524 1525 1526 1527 1529 1529 1530 1531 1532 1533 1535 1536 1537 1538 1538 1540 1541 1542 1543 1543 1543 1544 1544 1545 1545 1546 1546 1546 1546
1389 1392 1395 1398 1400 1404 1407 1410 1412 1414 1418 1420 1423 1425 1427 1430 1432 1436 1439 1442 1446 1450 1453 1456 1458 1460 1462 1466 1468 1471 1473 1476 1478 1480 1482 1485 1487 1489 1491 1493 1495 1496 1499 1500 1502 1504 1505 1506 1507 1509 1511 1512 1512 1513 1515 1518 1521 1522 1522 1524 1525 1526 1527 1528 1529 1530 1531 1533 1534 1535 1536 1537 1539 1539 1540 1541 1542 1542 1543 1543 1544 1544 1545 1545 1544
1388 1391 1394 1396 1399 1402 1405 1407 1409 1411 1413 1416 1418 1420 1423 1426 1428 1432 1435 1438 1442 1445 1448 1451 1453 1456 1459 1462 1464 1467 1469 1472 1474 1476 1478 1481 1483 1486 1488 1490 1492 1493 1496 1498 1499 1500 1501 1503 1505 1506 1507 1508 1509 1510 1512 1515 1517 1518 1519 1520 1522 1523 1524 1525 1526 1527 1528 1530 1531 1532 1533 1535 1536 1537 1538 1539 1540 1541 1541 1541 1542 1542 1543 1543 1542
1387 1390 1392 1395 1397 1399 1402 1403 1405 1407 1409 1412 1414 1417 1419 1422 1424 1427 1430 1435 1438 1440 1443 1446 1449 1452 1455 1457 1460 1462 1465 1467 1470 1472 1475 1477 1480 1483 1485 1487 1489 1490 1492 1494 1496 1497 1499 1501 1502 1503 1505 1505 1506 1507 1509 1512 1514 1515 1516 1517 1519 1521 1521 1522 1523 1525 1526 1528 1529 1530 1531 1532 1534 1535 1536 1537 1538 1538 1538 1539 1540 1540 1540 1540 1540
1383 1385 1387 1390 1392 1394 1396 1398 1400 1403 1405 1407 1410 1412 1415 1416 1419 1422 1426 1431 1434 1436 1439 1442 1445 1448 1450 1452 1456 1458 1460 1463 1466 1469 1472 1474 1477 1480 1482 1484 1486 1487 1490 1491 1493 1495 1496 1498 1499 1501 1502 1502 1503 1504 1506 1509 1511 1512 1513 1514 1516 1518 1519 1520 1521 1522 1524 1526 1527 1529 1530 1531 1532 1533 1534 1534 1535 1535 1535 1536 1537 1537 1538 1538 1538
1378 1380 1383 1386 1388 1391 1393 1394 1396 1398 1400 1402 1405 1407 1409 1412 1415 1419 1422 1426 1429 1431 1434 1437 1440 1443 1445 1448 1452 1454 1456 1460 1463 1466 1469 1471 1474 1476 1478 1481 1483 1485 1487 1489 1491 1493 1494 1495 1496 1497 1498 1499 1499 1501 1504 1507 1508 1509 1510 1511 1513 1515 1517 1518 1519 1521 1523 1524 1525 1527 1528 1528 1530 1531 1531 1531 1532 1532 1533 1533 1534 1535 1535 1536 1536
1378 1378 1380 1383 1384 1387 1389 1391 1393 1394 1396 1398 1401 1403 1406 1408 1412 1415 1418 1421 1423 1426 1429 1432 1435 1438 1441 1444 1447 1450 1453 1457 1460 1463 1466 1468 1470 1473 1475 1478 1480 1482 1485 1487 1489 1490 1491 1492 1493 1494 1495 1496 1497 1499 1501 1504 1505 1507 1508 1508 1510 1512 1514 1515 1517 1518 1520 1522 1523 1525 1525 1526 1527 1527 1528 1528 1529 1529 1530 1530 1531 1532 1532 1533 1533
1377 1378 1378 1379 1380 1382 1384 1386 1389 1391 1393 1395 1397 1399 1402 1405 1407 1410 1413 1416 1419 1421 1423 1426 1430 1433 1436 1439 1442 1446 1450 1453 1457 1460 1462 1464 1467 1470 1472 1475 1478 1480 1482 1484 1486 1487 1489 1490 1491 1491 1492 1493 1494 1496 1499 1501 1502 1504 1505 1506 1507 1509 1511 1512 1514 1515 1517 1519 1521 1522 1523 1523 1523 1523 1524 1525 1526 1526 1527 1527 1528 1529 1529 1529 1529
1375 1377 1377 1376 1377 1379 1381 1382 1384 1387 1390 1391 1393 1396 1398 1400 1403 1406 1409 1412 1415 1417 1418 1421 1424 1427 1431 1434 1438 1442 1446 1449 1453 1456 1458 1461 1464 1467 1470 1472 1475 1477 1479 1481 1483 1484 1486 1487 1488 1489 1490 1491 1492 1494 1496 1498 1500 1502 1503 1504 1505 1507 1508 1510 1512 1513 1514 1516 1517 1519 1519 1520 1520 1520 1521 1523 1524 1524 1524 1525 1525 1526 1526 1526 1526
1372 1374 1375 1376 1377 1378 1380 1381 1382 1384 1385 1387 1389 1391 1393 1396 1398 1400 1404 1408 1410 1411 1413 1415 1419 1422 1426 1430 1434 1438 1442 1445 1449 1452 1456 1459 1461 1464 1467 1469 1471 1473 1475 1477 1479 1481 1483 1484 1486 1487 1488 1489 1490 1492 1493 1495 1497 1499 1501 1501 1503 1504 1505 1507 1509 1511 1512 1513 1515 1516 1517 1517 1517 1518 1519 1521 1522 1522 1522 1522 1522 1523 1522 1522 1522
1368 1369 1371 1372 1374 1376 1378 1378 1378 1379 1381 1382 1385 1386 1388 1390 1392 1394 1398 1401 1404 1406 1408 1411 1414 1418 1422 1426 1430 1434 1438 1442 1446 1450 1453 1456 1458 1461 1463 1466 1468 1469 1471 1473 1475 1477 1479 1481 1483 1484 1485 1487 1488 1490 1491 1492 1494 1496 1497 1499 1500 1502 1503 1504 1506 1508 1509 1511 1513 1514 1515 1515 1515 1516 1518 1519 1519 1519 1519 1519 1520 1519 1519 1518 1518
1364 1365 1366 1367 1369 1370 1372 1373 1373 1374 1376 1378 1380 1382 1383 1383 1384 1388 1391 1393 1397 1401 1404 1407 1410 1414 1419 1423 1427 1431 1435 1439 1443 1446 1450 1452 1455 1458 1460 1462 1464 1466 1468 1470 1472 1474 1476 1477 1479 1481 1482 1484 1486 1487 1488 1490 1491 1493 1495 1496 1497 1498 1500 1502 1504 1506 1507 1509 1511 1512 1513 1513 1514 1515 1516 1516 1517 1517 1517 1517 1517 1516 1516 1516 1515
1363 1363 1362 1363 1363 1364 1364 1365 1366 1368 1371 1373 1374 1375 1376 1377 1378 1381 1383 1386 1391 1396 1401 1405 1408 1411 1415 1419 1423 1427 1431 1436 1440 1443 1446 1449 1452 1454 1457 1459 1461 1463 1464 1466 1469 1470 1472 1474 1476 1478 1480 1481 1483 1484 1486 1487 1488 1490 1492 1493 1494 1496 1497 1500 1502 1504 1505 1507 1509 1510 1510 1511 1512 1512 1513 1514 1514 1515 1515 1514 1514 1514 1513 1513 1512
1361 1360 1359 1358 1359 1358 1358 1358 1360 1363 1365 1367 1368 1369 1370 1372 1373 1375 1378 1382 1387 1392 1398 1401 1404 1408 1412 1416 1420 1425 1429 1433 1437 1440 1443 1446 1449 1451 1454 1455 1458 1460 1461 1463 1464 1465 1467 1468 1469 1473 1476 1478 1478 1480 1482 1483 1485 1487 1489 1490 1492 1494 1496 1498 1500 1501 1503 1505 1506 1507 1508 1508 1509 1510 1511 1511 1512 1512 1512 1512 1511 1511 1511 1510 1510
1358 1357 1356 1355 1356 1356 1355 1353 1354 1356 1359 1360 1361 1363 1365 1367 1369 1372 1377 1381 1385 1389 1394 1399 1402 1405 1410 1414 1418 1423 1427 1431 1435 1437 1441 1443 1445 1448 1450 1453 1455 1457 1458 1460 1461 1462 1463 1462 1463 1467 1472 1474 1475 1476 1478 1480 1482 1485 1487 1488 1490 1492 1495 1496 1498 1499 1501 1502 1503 1504 1505 1506 1507 1508 1508 1509 1509 1510 1509 1509 1509 1509 1508 1508 1508
1356 1355 1353 1352 1354 1356 1356 1354 1351 1352 1355 1357 1358 1361 1363 1365 1367 1371 1376 1380 1384 1388 1392 1397 1400 1404 1408 1413 1418 1422 1426 1430 1433 1436 1438 1440 1443 1446 1448 1451 1453 1455 1457 1458 1460 1462 1462 1461 1460 1463 1467 1470 1472 1474 1476 1479 1481 1483 1485 1487 1489 1490 1492 1494 1495 1497 1499 1500 1501 1502 1503 1504 1504 1505 1506 1506 1507 1507 1507 1507 1507 1506 1506 1506 1505
1357 1356 1353 1351 1352 1354 1358 1362 1359 1355 1355 1358 1360 1362 1364 1365 1367 1370 1374 1378 1382 1387 1391 1395 1399 1403 1407 1412 1417 1422 1426 1429 1432 1434 1436 1438 1441 1444 1447 1450 1452 1454 1456 1457 1459 1462 1463 1461 1459 1461 1465 1468 1471 1473 1475 1478 1480 1482 1484 1485 1487 1488 1490 1492 1493 1495 1496 1498 1499 1500 1501 1501 1502 1503 1504 1504 1505 1505 1505 1505 1504 1504 1504 1503 1502
1358 1358 1356 1354 1352 1352 1360 1369 1368 1361 1357 1359 1361 1362 1363 1364 1365 1368 1372 1376 1381 1385 1389 1393 1397 1401 1406 1411 1416 1421 1425 1428 1431 1433 1435 1438 1440 1443 1446 1448 1451 1453 1454 1456 1458 1462 1462 1460 1459 1461 1464 1467 1470 1473 1475 1477 1479 1481 1482 1484 1485 1486 1488 1489 1491 1492 1494 1495 1496 1497 1498 1499 1500 1501 1502 1502 1503 1503 1502 1502 1502 1502 1501 1501 1500
1358 1357 1357 1357 1353 1353 1359 1368 1369 1364 1359 1358 1360 1363 1364 1364 1363 1365 1369 1374 1378 1382 1386 1390 1395 1400 1405 1410 1415 1419 1423 1426 1429 1431 1434 1438 1440 1443 1446 1448 1450 1452 1453 1454 1457 1459 1460 1458 1458 1460 1463 1466 1470 1472 1474 1476 1477 1479 1480 1481 1483 1484 1485 1487 1488 1490 1492 1493 1494 1495 1497 1498 1499 1500 1500 1500 1500 1501 1501 1500 1500 1500 1499 1498 1498
1358 1357 1358 1359 1357 1355 1359 1365 1369 1369 1365 1360 1359 1364 1368 1367 1365 1364 1366 1370 1375 1379 1383 1388 1393 1399 1405 1409 1413 1417 1420 1424 1427 1430 1433 1437 1439 1442 1444 1446 1448 1450 1451 1453 1455 1457 1457 1457 1457 1459 1461 1464 1469 1471 1473 1474 1476 1477 1478 1479 1480 1482 1483 1484 1486 1488 1490 1492 1493 1494 1495 1496 1497 1498 1498 1498 1498 1499 1498 1498 1498 1497 1497 1496 1496
1358 1358 1359 1361 1361 1359 1359 1361 1363 1367 1368 1363 1358 1360 1365 1367 1367 1366 1365 1367 1372 1377 1382 1387 1393 1399 1405 1408 1412 1416 1419 1422 1425 1428 1432 1435 1438 1440 1442 1444 1446 1447 1449 1452 1454 1455 1456 1457 1459 1460 1461 1463 1467 1470 1471 1473 1474 1475 1477 1478 1479 1480 1482 1483 1485 1487 1489 1490 1491 1492 1493 1494 1495 1496 1496 1496 1496 1496 1496 1496 1495 1495 1495 1494 1494
1360 1360 1361 1363 1364 1364 1362 1360 1357 1360 1365 1364 1357 1354 1358 1365 1369 1370 1369 1370 1375 1379 1383 1388 1394 1401 1405 1408 1411 1416 1419 1422 1424 1427 1430 1432 1436 1439 1441 1443 1444 1446 1448 1449 1450 1452 1453 1455 1458 1461 1462 1464 1466 1469 1470 1472 1473 1474 1476 1477 1478 1479 1481 1483 1485 1486 1487 1488 1489 1490 1491 1493 1493 1494 1494 1494 1494 1494 1494 1493 1493 1493 1492 1492 1492
1363 1363 1364 1365 1366 1366 1365 1362 1359 1359 1364 1364 1359 1356 1360 1368 1374 1378 1378 1380 1383 1386 1388 1392 1398 1403 1406 1408 1412 1415 1419 1421 1424 1426 1428 1430 1434 1437 1440 1442 1445 1447 1448 1449 1450 1451 1451 1451 1453 1458 1461 1464 1466 1468 1469 1471 1472 1473 1474 1475 1476 1478 1479 1481 1483 1484 1485 1486 1487 1489 1490 1491 1491 1492 1492 1492 1492 1491 1491 1490 1490 1490 1490 1490 1490